Regional Weather Roundup
Issued by NWS

Home | Current Version | Previous Version | Graphics & Text | Print | Product List | Glossary On
Versions: 1 2 3 4 5 6 7 8 9 10 11 12 13 14 15 16 17 18 19 20 21 22 23 24 25 26 27 28 29 30 31 32 33 34 35 36 37 38 39 40 41 42 43 44 45 46 47 48 49 50
000
ASUS45 KPSR 230110
RWRAZ

ARIZONA REGIONAL HOURLY WEATHER ROUNDUP
NATIONAL WEATHER SERVICE TUCSON AZ
600 PM MST THU JUN 22 2017

NOTE: FAIR INDICATES FEW OR NO CLOUDS BELOW 12,000 FEET WITH NO
SIGNIFICANT WEATHER AND/OR OBSTRUCTIONS TO VISIBILITY.

AZZ001>003-036-230200-
NORTHWEST ARIZONA

CITY           SKY/WX    TMP DP  RH WIND       PRES   REMARKS
BULLHEAD CITY  SUNNY    117  25   4 S20       29.56S HX 106
KINGMAN        SUNNY    103  37  10 SW17G29   29.85F
$$

AZZ004>008-015-016-018-230200-
NORTH CENTRAL ARIZONA

CITY           SKY/WX    TMP DP  RH WIND       PRES   REMARKS
GRAND CANYON   SUNNY     90  14   6 NW12G24   30.11S
PRESCOTT       SUNNY     95  26   8 W17G28    30.00S
FLAGSTAFF      MOSUNNY   87  24  10 W13G21    30.14S
PAYSON         CLEAR     95  37  13 SW15G23   30.02S
PAGE           SUNNY    103  11   3 W12G24    29.83S
$$

AZZ009>014-017-230200-
NORTHEAST ARIZONA

CITY           SKY/WX    TMP DP  RH WIND       PRES   REMARKS
WINSLOW        MOSUNNY  101  27   7 W21G28    29.91S
SAINT JOHNS    MOSUNNY   96  26   8 NW17G31   29.97R
WINDOW ROCK    MOSUNNY   93  19   7 NW9G26    30.05S
SHOW LOW       MOSUNNY   91  23   8 W16G25    30.07S
$$

AZZ023-230200-
GREATER PHOENIX AREA

CITY           SKY/WX    TMP DP  RH WIND       PRES   REMARKS
PHOENIX        MOSUNNY  111  44  10 W16G25    29.62F HX 106
BUCKEYE        CLEAR    109  45  11 SW9       29.64S HX 104
GLENDALE       MOSUNNY  113  45  10 S17G23    29.64F HX 108
LUKE AFB       SUNNY    112  44  10 SW17      29.61F HX 106
DEER VALLEY    SUNNY    109  44  11 SW16G23   29.64F HX 104
SCOTTSDALE     SUNNY    109  42  10 W13G22    29.67F HX 103
MESA-GATEWAY   SUNNY    109  45  11 W16       29.66F HX 104
CHANDLER       SUNNY    109  43  10 SW13      29.64F HX 104
$$

AZZ027-028-230200-
SOUTHWEST MARICOPA COUNTY AND PINAL COUNTY

CITY           SKY/WX    TMP DP  RH WIND       PRES   REMARKS
CASA GRANDE    SUNNY    109  47  12 W15       29.68  HX 105
$$

AZZ503-504-507>509-230200-
SOUTHEAST ARIZONA

CITY           SKY/WX    TMP DP  RH WIND       PRES   REMARKS
TUCSON         SUNNY    107  40  10 NW13      29.79R HX 101
DAVIS-MONTHAN  SUNNY    106  40  10 NW18      29.77S HX 100
RYAN FIELD     CLEAR    108  43  11 W14       29.77S HX 102
NOGALES        PTSUNNY   93  48  21 SE23G32   29.93R
SIERRA VISTA   PTSUNNY   95  41  15 NW18G29   29.97S
DOUGLAS        CLOUDY    99  42  14 W18G28    29.87R
SAFFORD        MOSUNNY  106  40  10 W25G32    29.73R HX 100
$$

AZZ020-021-025-026-031-230200-
SOUTHWEST ARIZONA

CITY           SKY/WX    TMP DP  RH WIND       PRES   REMARKS
YUMA           SUNNY    102  60  25 S17       29.63F HX 103
$$

CAZ031-033-041-043-047-048-061-230200-
SOUTHERN CALIFORNIA

CITY           SKY/WX    TMP DP  RH WIND       PRES   REMARKS
DOWNTOWN L.A.  NOT AVBL
L.A. AIRPORT   MOSUNNY   68  61  78 W12       29.81S
SAN DIEGO      PTSUNNY   68  61  78 SW7       29.84S
BURBANK        SUNNY     79  59  50 S12       29.79S
ONTARIO        MOSUNNY   86  60  41 SW14G20   29.78S
RIVERSIDE      SUNNY     87  61  41 W13       29.78S
PALM SPRINGS   SUNNY    109  54  16 VRB7      29.64S HX 107
EL CENTRO NAS  SUNNY    105  57  20 E12       29.60F HX 104
IMPERIAL       PTSUNNY  106  60  22 SE12      29.58F HX 107
BLYTHE         MOSUNNY  110  59  19 S18       29.60S HX 111
NEEDLES        PTSUNNY  118  25   4 SW14      29.60F HX 107
$$

NVZ020-UTZ003-230200-
SOUTHERN NEVADA-UTAH

CITY           SKY/WX    TMP DP  RH WIND       PRES   REMARKS
LAS VEGAS      MOSUNNY  112   0   2 W16G25    29.68S HX 102
SALT LAKE CITY SUNNY     85  31  14 N13       30.00R
$$

NMZ009-TXZ055-230200-
NEW MEXICO-WEST TEXAS

CITY           SKY/WX    TMP DP  RH WIND       PRES   REMARKS
ALBUQUERQUE    MOSUNNY   99  25   7 W16       29.87S
EL PASO        MOSUNNY  107  26   6 W9        29.73F
$$


........................KEY........................
SKY/WX - SKY CONDITION/WEATHER
TMP    - TEMPERATURE IN FAHRENHEIT
DP     - DEWPOINT IN FAHRENHEIT
RH     - RELATIVE HUMIDITY IN PERCENT
WIND   - DIRECTION AND SPEED IN MILES PER HOUR (MPH)
VRB    - VARIABLE WIND DIRECTION
PRES   - MEAN SEA LEVEL PRESSURE IN INCHES OF MERCURY
         F - FALLING PRESSURE   R - RISING PRESSURE
         S - STEADY PRESSURE
VSB    - VISIBILITY IN MILES
HX     - HEAT INDEX IN FAHRENHEIT
WCI    - WIND CHILL INDEX IN FAHRENHEIT
TC     - TEMPERATURE IN CELSIUS WHICH IS ALSO KNOWN AS
         TEMPERATURE IN CENTIGRADE
AFB    - AIR FORCE BASE
         LUKE AFB IS LUKE AIR FORCE BASE
         DAVIS-MONTHAN IS DAVIS-MONTHAN AIR FORCE BASE
NAS    - NAVAL AIR STATION
         EL CENTRO NAS IS EL CENTRO NAVAL AIR STATION
N/A    - NOT AVAILABLE




USA.gov is the U.S. government's official web portal to all federal, state and local government web resources and services.